Flag for Belarus Weather past 2 weeks in Barysaw, Belarus

Now
64 °F

Passing clouds.


Feels Like: 64 °F
Forecast: 50 / 72 °F
Wind: 13 mph from Northwest

Location: Minsk

Current Time: May 29, 2015 at 1:41:35 PM

Latest Report: May 29, 2015 at 1:00 PM


Visibility: N/A

Pressure: 29.83 "Hg

Humidity: 37%

Dew point: 37 °F

Location of BarysawLocation

Historic Weather in Barysaw — Graph

°F

Barysaw temperature yesterday

Maximum temperature yesterday: 59 °F (at 4:00 PM)
Minimum temperature yesterday: 48 °F (at 12:30 AM)
Average temperature yesterday: 53 °F

Past Weeks' High & Low Weather Summary

 TemperatureHumidityPressure
High82 °F (May 26, 5:30 PM)100% (May 14, 9:04 PM)30.18 "Hg (May 14, 9:04 PM)
Low34 °F (May 17, 2:00 AM)26% (May 20, 3:00 PM)29.62 "Hg (May 27, 7:00 AM)
Average54 °F75%29.90 "Hg
* Reported May 14 12:00 Noon — May 29 12:30 PM, Barysaw, Weather by CustomWeather, © 2015

Note: Actual official high and low records may vary slightly from our data, if they occured in-between our weather recording intervals... More about our weather records

Advertising

Barysaw weather history for previous 24 hours

 ConditionsComfort  
Time TempWeatherWind HumidityBarometerVisibility
12:30 PM
Fri, May 29
64 °FPassing clouds.13 mph40%29.83 "HgN/A
12:00 PM63 °FSunny.13 mph42%29.86 "Hg10 mi
11:30 AM63 °FScattered clouds.13 mph39%29.83 "HgN/A
11:00 AM63 °FScattered clouds.17 mph39%29.83 "HgN/A
10:30 AM63 °FScattered clouds.15 mph42%29.83 "HgN/A
10:00 AM61 °FSunny.15 mph45%29.83 "Hg10 mi
9:30 AM61 °FSunny.13 mph48%29.83 "Hg10 mi
9:00 AM59 °FSunny.15 mph51%29.86 "Hg10 mi
8:30 AM59 °FSunny.10 mph55%29.86 "Hg10 mi
8:00 AM55 °FSunny.10 mph63%29.86 "Hg10 mi
7:00 AM50 °FSunny.8 mph82%29.86 "Hg10 mi
6:30 AM46 °FSunny.6 mph93%29.86 "Hg10 mi
6:00 AM43 °FSunny.3 mph93%29.86 "Hg10 mi
5:30 AM41 °FClear.1 mph100%29.86 "Hg10 mi
5:00 AM43 °FClear.3 mph93%29.83 "Hg10 mi
4:30 AM43 °FClear.3 mph93%29.83 "Hg10 mi
4:00 AM43 °FClear.1 mph100%29.83 "Hg10 mi
3:30 AM43 °FClear.3 mph93%29.86 "Hg10 mi
3:00 AM43 °FClear.3 mph93%29.86 "Hg10 mi
2:30 AM45 °FPassing clouds.3 mph93%29.86 "HgN/A
2:00 AM45 °FClear.3 mph100%29.86 "Hg10 mi
1:00 AM45 °FClear.3 mph93%29.86 "Hg10 mi
12:30 AM45 °FClear.No wind100%29.86 "Hg10 mi
12:00 AM46 °FClear.1 mph93%29.86 "Hg10 mi
11:30 PM
Thu, May 28
48 °FClear.3 mph87%29.86 "Hg10 mi
11:00 PM50 °FClear.1 mph82%29.86 "Hg10 mi
10:30 PM52 °FClear.3 mph77%29.86 "Hg10 mi
10:00 PM52 °FSunny.3 mph82%29.86 "Hg10 mi
9:30 PM55 °FSunny.3 mph72%29.86 "Hg10 mi
9:00 PM55 °FSunny.8 mph72%29.86 "Hg10 mi
8:30 PM57 °FPartly sunny.10 mph67%29.86 "HgN/A
8:00 PM57 °FBroken clouds.8 mph67%29.86 "HgN/A
7:30 PM57 °FBroken clouds.10 mph63%29.86 "HgN/A
7:00 PM57 °FBroken clouds.13 mph63%29.86 "HgN/A
6:30 PM57 °FPartly sunny.15 mph59%29.86 "HgN/A
6:00 PM57 °FPartly sunny.10 mph63%29.83 "HgN/A
5:30 PM57 °FPartly sunny.15 mph67%29.83 "HgN/A
5:00 PM57 °FPartly sunny.13 mph67%29.83 "HgN/A
4:30 PM59 °FPartly sunny.13 mph63%29.83 "HgN/A
4:00 PM59 °FPartly sunny.15 mph63%29.83 "HgN/A
3:30 PM57 °FMostly cloudy.15 mph63%29.83 "HgN/A
3:00 PM57 °FMostly cloudy.15 mph63%29.83 "HgN/A
2:30 PM57 °FMostly cloudy.15 mph67%29.83 "HgN/A
2:00 PM57 °FMostly cloudy.13 mph72%29.83 "HgN/A
1:30 PM57 °FMostly cloudy.15 mph67%29.83 "HgN/A
1:00 PM55 °FMostly cloudy.13 mph77%29.83 "HgN/A
Weather by CustomWeather, © 2015

See weather overviewHow to use our weather pages